📊 Raw Sensor Data

Showing records 33601 to 33625 of 84,786 total

ID Distance (ft) Battery V Battery A Int Temp (°F) Int Humid (%) Ext Temp (°F) Solar V RSSI SNR Time Stamp
51198 14.6 3.90 -5 58 43 59 0.00 -74 8 09/06/2025 05:00 AM
51197 14.6 3.96 -5 58 44 59 0.00 -74 8 09/06/2025 04:45 AM
51196 14.6 3.96 -5 58 43 59 0.00 -74 8 09/06/2025 04:30 AM
51195 14.6 3.96 -5 58 44 59 0.00 -72 8 09/06/2025 04:15 AM
51194 14.6 3.96 -5 58 43 59 0.00 -74 8 09/06/2025 04:00 AM
51193 14.6 3.96 -5 58 44 59 0.00 -74 7 09/06/2025 03:45 AM
51192 14.6 3.91 -5 58 44 59 0.00 -72 8 09/06/2025 03:30 AM
51191 14.7 3.91 -5 58 44 59 0.10 -72 8 09/06/2025 03:15 AM
51190 14.7 3.91 -5 58 44 59 0.00 -73 8 09/06/2025 03:00 AM
51189 14.7 3.91 -5 58 44 59 0.00 -72 8 09/06/2025 02:45 AM
51188 14.7 3.91 -5 58 44 59 0.00 -74 7 09/06/2025 02:30 AM
51187 14.7 3.97 -5 58 44 60 0.00 -73 8 09/06/2025 02:15 AM
51186 14.7 3.97 -5 58 44 60 0.00 -73 8 09/06/2025 02:00 AM
51185 14.7 3.97 -5 59 44 60 0.00 -72 8 09/06/2025 01:45 AM
51184 14.7 3.97 -5 59 44 60 0.00 -72 8 09/06/2025 01:30 AM
51183 14.6 3.91 -5 59 44 60 0.00 -74 7 09/06/2025 01:15 AM
51182 14.7 3.91 -5 59 44 60 0.00 -73 8 09/06/2025 01:00 AM
51181 14.7 3.92 -5 59 44 60 0.00 -73 7 09/06/2025 12:45 AM
51180 14.7 3.92 -5 60 44 61 0.00 -72 8 09/06/2025 12:30 AM
51179 14.8 3.92 -5 60 44 61 0.00 -71 8 09/06/2025 12:15 AM
51178 14.6 3.97 -5 60 44 61 0.00 -72 8 09/06/2025 12:00 AM
51177 14.7 3.97 -5 61 45 62 0.10 -72 7 09/05/2025 11:45 PM
51176 14.9 3.97 -5 61 45 62 0.10 -74 8 09/05/2025 11:30 PM
51175 14.8 3.98 -5 61 45 62 0.00 -73 7 09/05/2025 11:15 PM
51174 14.7 3.98 -5 61 45 62 0.00 -72 8 09/05/2025 11:00 PM